| time (UTC) | temp C | wind direction | speed KPH | gust KPH | rain 1hr cm | rain 24hr cm | rain mn cm | humidity % | barometer mb |
| 20260906090023 | 9 | 40 | 16.1 | 25.7 | 0.00 | 0.00 | 0.00 | 75 | 1009.8 |
| 20260906084517 | 9 | 37 | 12.9 | 24.1 | 0.00 | 0.03 | 0.00 | 78 | 1009.7 |
| 20260906083010 | 9 | 27 | 12.9 | 27.4 | 0.00 | 0.03 | 0.00 | 79 | 1009.4 |
| 20260906081513 | 9 | 41 | 11.3 | 33.8 | 0.00 | 0.03 | 0.00 | 79 | 1009.2 |
| 20260906080010 | 9 | 27 | 14.5 | 37.0 | 0.00 | 0.03 | 0.00 | 79 | 1009.2 |
| 20260906074504 | 9 | 47 | 17.7 | 30.6 | 0.00 | 0.03 | 0.00 | 79 | 1009.0 |
| 20260906073002 | 9 | 27 | 17.7 | 29.0 | 0.00 | 0.03 | 0.00 | 80 | 1008.9 |
| 20260906071600 | 9 | 15 | 12.9 | 29.0 | 0.00 | 0.03 | 0.00 | 80 | 1008.7 |
| 20260906070059 | 9 | 33 | 12.9 | 25.7 | 0.00 | 0.03 | 0.00 | 79 | 1008.6 |
| 20260906064556 | 9 | 28 | 17.7 | 40.2 | 0.00 | 0.03 | 0.00 | 80 | 1008.4 |
| 20260906063054 | 9 | 36 | 16.1 | 30.6 | 0.00 | 0.03 | 0.00 | 81 | 1008.3 |
| 20260906061550 | 9 | 44 | 14.5 | 27.4 | 0.00 | 0.03 | 0.00 | 81 | 1008.0 |
| 20260906060048 | 9 | 14 | 16.1 | 29.0 | 0.00 | 0.03 | 0.00 | 81 | 1007.9 |
| 20260906054549 | 9 | 25 | 17.7 | 30.6 | 0.00 | 0.03 | 0.00 | 80 | 1007.7 |
| 20260906053043 | 9 | 35 | 19.3 | 33.8 | 0.00 | 0.03 | 0.00 | 79 | 1007.4 |
| 20260906051550 | 9 | 31 | 16.1 | 32.2 | 0.00 | 0.03 | 0.00 | 81 | 1007.2 |
| 20260906050036 | 9 | 41 | 17.7 | 32.2 | 0.00 | 0.03 | 0.00 | 80 | 1007.1 |
| 20260906044534 | 9 | 33 | 14.5 | 35.4 | 0.00 | 0.03 | 0.00 | 79 | 1006.9 |
| 20260906043031 | 9 | 39 | 16.1 | 32.2 | 0.00 | 0.03 | 0.00 | 79 | 1006.7 |
| 20260906041528 | 9 | 34 | 14.5 | 30.6 | 0.00 | 0.03 | 0.00 | 80 | 1006.6 |
| 20260906040030 | 10 | 22 | 16.1 | 29.0 | 0.00 | 0.03 | 0.00 | 82 | 1006.4 |
| 20260906034522 | 10 | 27 | 16.1 | 30.6 | 0.00 | 0.23 | 0.00 | 81 | 1006.2 |
| 20260906033030 | 10 | 21 | 16.1 | 30.6 | 0.00 | 0.23 | 0.00 | 82 | 1006.0 |
| 20260906031518 | 10 | 29 | 14.5 | 33.8 | 0.00 | 0.23 | 0.00 | 81 | 1005.9 |
| 20260906030014 | 10 | 47 | 17.7 | 27.4 | 0.00 | 0.23 | 0.00 | 80 | 1005.7 |
| 20260906024530 | 10 | 31 | 14.5 | 29.0 | 0.00 | 0.23 | 0.00 | 79 | 1005.6 |
| 20260906023015 | 10 | 28 | 17.7 | 25.7 | 0.00 | 0.23 | 0.00 | 79 | 1005.5 |
| 20260906021510 | 10 | 4 | 14.5 | 29.0 | 0.00 | 0.23 | 0.00 | 80 | 1005.4 |
| 20260906020005 | 10 | 43 | 11.3 | 32.2 | 0.00 | 0.23 | 0.00 | 79 | 1005.2 |
| 20260906014508 | 10 | 42 | 17.7 | 32.2 | 0.00 | 0.23 | 0.00 | 78 | 1005.1 |
| 20260906013102 | 10 | 12 | 16.1 | 32.2 | 0.00 | 0.23 | 0.00 | 78 | 1004.9 |
| 20260906011604 | 10 | 28 | 16.1 | 35.4 | 0.00 | 0.23 | 0.00 | 75 | 1004.8 |
| 20260906010055 | 10 | 33 | 14.5 | 27.4 | 0.00 | 0.23 | 0.00 | 74 | 1004.7 |
| 20260906004603 | 11 | 38 | 17.7 | 29.0 | 0.00 | 0.23 | 0.00 | 75 | 1004.6 |
| 20260906003054 | 11 | 17 | 17.7 | 29.0 | 0.00 | 0.23 | 0.00 | 77 | 1004.5 |
| 20260906001645 | 11 | 30 | 16.1 | 27.4 | 0.00 | 0.23 | 0.00 | 76 | 1004.3 |
| 20260906000043 | 11 | 44 | 16.1 | 29.0 | 0.00 | 0.23 | 0.00 | 75 | 1004.1 |
| 20260905234538 | 11 | 34 | 12.9 | 25.7 | 0.00 | 0.23 | 0.00 | 78 | 1004.0 |
| 20260905233037 | 11 | 347 | 14.5 | 30.6 | 0.00 | 0.23 | 0.00 | 77 | 1003.9 |
| 20260905231540 | 12 | 34 | 11.3 | 25.7 | 0.00 | 0.23 | 0.00 | 75 | 1003.7 |
| 20260905230034 | 12 | 33 | 14.5 | 25.7 | 0.00 | 0.23 | 0.00 | 78 | 1003.7 |
| 20260905224533 | 12 | 33 | 9.7 | 19.3 | 0.00 | 0.23 | 0.00 | 78 | 1003.7 |
| 20260905223031 | 12 | 37 | 11.3 | 20.9 | 0.00 | 0.23 | 0.00 | 77 | 1003.6 |
| 20260905221528 | 12 | 30 | 6.4 | 22.5 | 0.00 | 0.23 | 0.00 | 78 | 1003.5 |
| 20260905220026 | 12 | 37 | 11.3 | 22.5 | 0.00 | 0.23 | 0.00 | 77 | 1003.4 |
| 20260905214527 | 12 | 36 | 9.7 | 25.7 | 0.00 | 0.23 | 0.00 | 74 | 1003.2 |
| 20260905213020 | 12 | 9 | 11.3 | 19.3 | 0.00 | 0.23 | 0.00 | 76 | 1003.1 |
| 20260905211520 | 12 | 29 | 8.0 | 19.3 | 0.00 | 0.23 | 0.00 | 80 | 1003.0 |
| 20260905210011 | 11 | 60 | 9.7 | 19.3 | 0.00 | 0.23 | 0.00 | 83 | 1002.9 |
| 20260905204513 | 11 | 47 | 9.7 | 25.7 | 0.00 | 0.23 | 0.23 | 83 | 1002.8 |
| 20260905203009 | 11 | 54 | 8.0 | 24.1 | 0.00 | 0.23 | 0.23 | 83 | 1002.7 |
| 20260905201506 | 11 | 44 | 9.7 | 17.7 | 0.00 | 0.23 | 0.23 | 84 | 1002.6 |
| 20260905200007 | 11 | 45 | 8.0 | 20.9 | 0.00 | 0.23 | 0.23 | 83 | 1002.5 |
| 20260905194504 | 11 | 38 | 9.7 | 22.5 | 0.00 | 0.23 | 0.23 | 84 | 1002.3 |
| 20260905193004 | 11 | 40 | 9.7 | 22.5 | 0.00 | 0.23 | 0.23 | 83 | 1002.3 |
| 20260905191502 | 11 | 44 | 12.9 | 22.5 | 0.00 | 0.23 | 0.23 | 83 | 1002.3 |
| 20260905190103 | 11 | 46 | 14.5 | 27.4 | 0.00 | 0.23 | 0.23 | 82 | 1002.2 |
| 20260905184600 | 11 | 61 | 8.0 | 22.5 | 0.00 | 0.23 | 0.23 | 82 | 1002.2 |
| 20260905183058 | 11 | 67 | 11.3 | 29.0 | 0.00 | 0.23 | 0.23 | 83 | 1002.1 |
| 20260905181608 | 11 | 37 | 9.7 | 32.2 | 0.00 | 0.23 | 0.23 | 84 | 1001.9 |
| 20260905180055 | 11 | 37 | 9.7 | 22.5 | 0.00 | 0.23 | 0.23 | 84 | 1001.8 |
| 20260905174602 | 11 | 30 | 8.0 | 20.9 | 0.00 | 0.23 | 0.23 | 84 | 1001.6 |
| 20260905173054 | 11 | 47 | 11.3 | 27.4 | 0.00 | 0.23 | 0.23 | 83 | 1001.5 |
| 20260905171550 | 11 | 32 | 8.0 | 24.1 | 0.00 | 0.23 | 0.23 | 83 | 1001.3 |
| 20260905170048 | 11 | 32 | 14.5 | 29.0 | 0.00 | 0.23 | 0.23 | 84 | 1001.2 |
| 20260905164546 | 11 | 31 | 8.0 | 22.5 | 0.00 | 0.23 | 0.23 | 84 | 1001.0 |
| 20260905163045 | 11 | 45 | 9.7 | 25.7 | 0.00 | 0.23 | 0.23 | 83 | 1000.9 |
| 20260905161557 | 11 | 33 | 8.0 | 20.9 | 0.00 | 0.23 | 0.23 | 83 | 1000.7 |
| 20260905160044 | 11 | 65 | 9.7 | 25.7 | 0.00 | 0.23 | 0.23 | 82 | 1000.6 |
| 20260905154541 | 11 | 36 | 9.7 | 25.7 | 0.00 | 0.23 | 0.23 | 81 | 1000.5 |
| 20260905153038 | 12 | 39 | 11.3 | 25.7 | 0.00 | 0.23 | 0.23 | 81 | 1000.4 |
| 20260905151536 | 12 | 50 | 12.9 | 25.7 | 0.00 | 0.23 | 0.23 | 79 | 1000.3 |
| 20260905150035 | 12 | 46 | 12.9 | 29.0 | 0.00 | 0.23 | 0.23 | 79 | 1000.3 |
| 20260905144533 | 12 | 18 | 16.1 | 25.7 | 0.00 | 0.23 | 0.23 | 82 | 1000.2 |
| 20260905143033 | 12 | 45 | 12.9 | 24.1 | 0.00 | 0.23 | 0.23 | 84 | 1000.0 |
| 20260905141534 | 11 | 32 | 12.9 | 32.2 | 0.00 | 0.23 | 0.23 | 83 | 999.9 |
| 20260905140026 | 11 | 56 | 16.1 | 33.8 | 0.00 | 0.23 | 0.23 | 83 | 999.7 |
| 20260905134524 | 11 | 47 | 11.3 | 33.8 | 0.00 | 0.23 | 0.23 | 85 | 999.7 |
| 20260905133023 | 12 | 47 | 16.1 | 27.4 | 0.00 | 0.23 | 0.23 | 85 | 999.4 |
| 20260905131522 | 11 | 62 | 17.7 | 29.0 | 0.00 | 0.23 | 0.23 | 85 | 999.3 |
| 20260905130021 | 11 | 57 | 14.5 | 29.0 | 0.00 | 0.23 | 0.23 | 87 | 999.2 |
| 20260905124522 | 12 | 60 | 16.1 | 27.4 | 0.00 | 0.23 | 0.23 | 86 | 999.1 |
| 20260905123027 | 12 | 58 | 12.9 | 27.4 | 0.00 | 0.23 | 0.23 | 86 | 999.0 |
| 20260905121520 | 12 | 33 | 14.5 | 27.4 | 0.00 | 0.23 | 0.23 | 87 | 998.7 |
| 20260905120013 | 12 | 31 | 16.1 | 33.8 | 0.00 | 0.23 | 0.23 | 86 | 998.6 |
| 20260905114514 | 12 | 49 | 19.3 | 29.0 | 0.00 | 0.23 | 0.23 | 87 | 998.5 |
| 20260905113011 | 12 | 37 | 11.3 | 27.4 | 0.00 | 0.23 | 0.23 | 88 | 998.5 |
| 20260905111508 | 12 | 78 | 14.5 | 29.0 | 0.00 | 0.23 | 0.23 | 86 | 998.2 |
| 20260905110007 | 12 | 110 | 17.7 | 32.2 | 0.00 | 0.23 | 0.23 | 87 | 998.1 |
| 20260905104505 | 12 | 46 | 14.5 | 29.0 | 0.00 | 0.23 | 0.23 | 86 | 997.9 |
| 20260905103105 | 12 | 68 | 14.5 | 30.6 | 0.00 | 0.23 | 0.23 | 87 | 997.7 |
| 20260905101603 | 11 | 48 | 16.1 | 30.6 | 0.00 | 0.23 | 0.23 | 88 | 997.5 |
| 20260905100106 | 11 | 43 | 16.1 | 33.8 | 0.00 | 0.23 | 0.23 | 90 | 997.4 |
| 20260905094557 | 12 | 35 | 14.5 | 30.6 | 0.00 | 0.23 | 0.23 | 87 | 997.2 |
| 20260905093055 | 12 | 33 | 16.1 | 32.2 | 0.00 | 0.23 | 0.23 | 88 | 997.1 |
| 20260905091611 | 11 | 43 | 11.3 | 29.0 | 0.00 | 0.23 | 0.23 | 91 | 997.0 |